Theta_e
295 294 294 294 294 294 294 295 294 293 293 292 291 291 290 290 289 289 289 288 288 288
293 293 293 293 294 294 295 293 293 293 292 291 291 290 289 289 288 289 288 288 288 287
293 293 293 293 293 293 293 293 292 292 291 290 290 289 289 288 288 287 288 287 287 286
292 293 292 293 293 293 293 292 291 291 290 290 289 289 288 288 287 286 286 286 286 286
291 292 292 292 292 292 291 291 291 290 290 289 289 288 288 287 286 285 285 285 285 285
290 290 291 291 290 291 290 290 290 289 289 288 288 288 288 287 286 285 285 285 285 285
289 290 290 290 290 290 290 289 289 289 289 288 288 288 287 286 285 285 285 285 285 284
288 288 288 288 289 289 289 289 289 288 288 287 287 287 286 285 285 284 284 285 285 284
287 287 288 288 288 288 288 287 287 287 287 286 286 288 288 286 284 284 284 283 283 282
286 286 286 287 287 287 287 287 286 286 286 285 286 289 290 287 284 283 283 283 282 280
284 284 285 284 285 286 286 286 286 285 285 286 285 289 290 288 283 282 282 280 279 278
281 282 283 284 285 286 285 285 286 286 285 285 284 289 289 288 283 282 281 279 277 277
281 282 282 284 285 286 286 286 286 285 285 284 284 288 289 288 284 281 281 278 277 277
281 281 282 284 284 284 285 285 284 284 284 284 284 284 288 289 283 283 281 280 279 276
Wind_Speed
16 12 11 12 10 10 10 10 11 10 9 9 9 8 7 5 5 5 5 5 5 3
13 13 12 12 10 9 9 8 11 11 10 10 9 9 9 6 7 6 5 5 5 5
14 14 12 10 11 11 10 10 11 11 10 10 9 9 9 7 6 7 5 5 6 6
12 12 11 12 13 13 11 12 12 12 11 11 11 10 10 9 8 8 7 7 7 7
10 11 12 13 13 12 12 11 12 12 12 11 11 11 11 10 9 10 9 8 7 8
10 12 13 12 11 11 11 11 11 11 12 12 12 11 10 10 9 10 9 8 8 7
9 10 9 9 10 12 12 13 12 12 12 11 11 11 10 10 9 9 9 8 8 6
7 6 6 7 8 9 11 10 12 12 10 10 11 9 11 11 10 9 9 8 7 6
4 7 10 10 9 10 11 11 11 12 13 12 9 17 20 14 10 10 9 8 7 5
3 5 6 5 9 12 13 12 13 13 12 13 12 21 21 19 9 9 8 7 6 5
7 5 5 6 10 10 9 13 12 13 13 12 11 21 20 19 8 7 7 7 6 6
10 9 5 7 9 8 8 9 12 11 14 14 11 21 21 17 9 7 7 6 6 6
11 9 8 8 8 7 7 10 8 10 13 14 12 21 21 17 8 8 6 5 6 10
9 10 8 7 4 6 8 7 9 9 9 11 12 14 22 22 10 8 6 6 5 6
Wind_Direction
183 184 184 178 170 179 184 186 176 177 172 167 167 168 168 176 175 178 194 198 210 227
178 176 177 173 171 177 178 169 171 175 173 172 169 169 172 179 179 184 190 206 217 227
180 179 175 166 174 176 176 167 167 173 176 169 173 172 173 178 181 187 193 204 215 232
182 179 169 177 182 183 174 173 172 176 173 174 177 176 178 182 180 193 200 210 220 238
170 173 179 189 189 177 176 176 173 172 174 177 180 179 182 183 184 195 204 212 220 236
179 186 195 192 180 178 171 174 173 171 177 181 183 181 186 185 185 198 205 207 215 229
200 198 195 186 182 178 177 176 178 182 183 183 181 183 183 183 189 197 206 206 214 219
180 177 172 182 184 179 183 182 179 176 181 181 183 185 183 185 190 193 201 207 210 220
213 193 191 187 184 180 186 181 177 185 185 185 191 193 191 183 188 194 194 199 203 217
249 226 216 200 187 195 196 180 188 188 185 190 194 192 191 190 189 191 194 191 187 208
340 260 225 188 203 207 191 194 191 189 189 190 198 192 191 188 180 191 196 189 187 202
336 318 248 217 219 214 200 200 204 194 184 191 192 191 188 180 177 193 206 193 194 205
320 313 288 239 222 209 203 216 202 198 197 193 186 190 187 180 173 190 195 192 206 216
325 312 292 268 215 205 208 197 195 200 197 189 184 188 189 188 182 192 184 195 199 212